STARLETTE 1 07646U 75010A 25294.59743563 -.00000117 00000+0 20835-4 0 9991 2 07646 49.8252 326.3560 0205690 354.8417 5.0359 13.82345655561538 LAGEOS 1 1 08820U 76039A 25294.43648451 .00000011 00000+0 00000+0 0 9990 2 08820 109.8411 97.5725 0044667 353.3880 22.0436 6.38664884897897 AJISAI (EGS) 1 16908U 86061A 25294.62694646 -.00000055 00000+0 30138-3 0 9998 2 16908 50.0072 160.9630 0011139 293.9000 149.6456 12.44513913450684 COSMOS 1989 (ETALON 1) 1 19751U 89001C 25294.20663013 .00000000 00000+0 00000+0 0 9992 2 19751 64.8074 80.3769 0023438 216.8747 324.1883 2.13156099286272 COSMOS 2024 (ETALON 2) 1 20026U 89039C 25294.30459362 -.00000040 00000+0 00000+0 0 9996 2 20026 65.0803 318.7604 0020416 214.4468 158.0795 2.13204630283419 LAGEOS 2 1 22195U 92070B 25274.43782847 -.00000009 00000+0 00000+0 0 9998 2 22195 52.6563 70.1545 0137774 74.3816 309.6932 6.47293810778675 STELLA 1 22824U 93061B 25294.60195235 -.00000007 00000+0 15748-4 0 9996 2 22824 98.8088 352.5757 0005899 202.2450 267.9010 14.27461105670730 LARETS 1 27944U 03042F 25294.62855295 .00000165 00000+0 41123-4 0 9995 2 27944 98.3866 87.2484 0013390 63.4589 296.7983 14.63800077178468 LARES 1 38077U 12006A 25294.66297135 -.00000021 00000+0 11092-3 0 9994 2 38077 69.4929 339.6700 0011466 267.7178 92.2536 12.54931954627140 LARES-2 1 53105U 22080A 25281.33217750 -.00000017 00000+0 00000+0 0 9999 2 53105 70.1696 31.6827 0005047 15.1998 344.8736 6.38965005 75572